Flag for Canada Weather past 2 weeks in Sault Ste. Marie, Ontario, Canada

Now
39 °F

Broken clouds.


Feels Like: 34 °F
Forecast: 36 / 49 °F
Wind: 8 mph from Northwest

Location: Sault Ste Marie

Current Time: Apr 27, 2015 at 10:15:18 AM

Latest Report: Apr 27, 2015 at 9:00 AM


Visibility: 15 mi

Pressure: 30.09 "Hg

Humidity: 81%

Dew point: 34 °F

Location of Sault Ste. MarieLocation

Historic Weather in Sault Ste. Marie — Graph

°F

Sault Ste. Marie temperature yesterday

Maximum temperature yesterday: 43 °F (at 1:51 PM)
Minimum temperature yesterday: 27 °F (at 5:00 AM)
Average temperature yesterday: 35 °F

Past Weeks' High & Low Weather Summary

 TemperatureHumidityPressure
High63 °F (Apr 12, 5:00 PM)100% (Apr 13, 11:49 AM)30.46 "Hg (Apr 13, 11:49 AM)
Low21 °F (Apr 24, 7:00 AM)24% (Apr 14, 5:00 PM)29.06 "Hg (Apr 20, 1:00 PM)
Average38 °F71%29.94 "Hg
* Reported Apr 12 9:00 AM — Apr 27 9:00 AM, Sault Ste. Marie, Weather by CustomWeather, © 2015

Note: Actual official high and low records may vary slightly from our data, if they occured in-between our weather recording intervals... More about our weather records

Advertising

Sault Ste. Marie weather history for previous 24 hours

 ConditionsComfort  
Time TempWeatherWind HumidityBarometerVisibility
9:00 AM
Mon, Apr 27
39 °FBroken clouds.8 mph81%30.09 "Hg15 mi
8:00 AM36 °FBroken clouds.7 mph93%30.08 "Hg15 mi
7:00 AM34 °FPassing clouds.6 mph93%30.07 "Hg15 mi
6:00 AM34 °FPassing clouds.5 mph87%30.06 "Hg15 mi
5:00 AM37 °FPassing clouds.9 mph87%30.05 "Hg15 mi
4:00 AM36 °FOvercast.8 mph93%30.04 "Hg15 mi
3:00 AM36 °FMostly cloudy.5 mph93%30.04 "Hg15 mi
2:00 AM37 °FPartly cloudy.7 mph87%30.04 "Hg15 mi
1:00 AM36 °FPassing clouds.6 mph87%30.05 "Hg15 mi
12:00 AM34 °FPassing clouds.8 mph93%30.06 "Hg15 mi
11:00 PM
Sun, Apr 26
36 °FOvercast.8 mph87%30.06 "Hg15 mi
10:00 PM36 °FMostly cloudy.10 mph87%30.05 "Hg15 mi
9:00 PM36 °FBroken clouds.14 mph87%30.04 "Hg15 mi
8:00 PM36 °FPartly sunny.15 mph87%30.04 "Hg15 mi
7:00 PM36 °FBroken clouds.15 mph87%30.04 "Hg15 mi
6:00 PM37 °FBroken clouds.17 mph81%30.05 "Hg15 mi
5:00 PM39 °FPartly sunny.18 mph75%30.05 "Hg15 mi
4:00 PM41 °FBroken clouds.20 mph70%30.05 "Hg15 mi
3:00 PM41 °FPartly sunny.17 mph66%30.06 "Hg15 mi
2:00 PM43 °FPartly sunny.18 mph66%30.06 "Hg15 mi
1:51 PM43 °FPartly sunny.20 mph66%30.06 "Hg15 mi
1:00 PM41 °FPartly sunny.15 mph66%30.06 "Hg15 mi
12:00 PM41 °FBroken clouds.14 mph70%30.05 "Hg15 mi
11:00 AM37 °FPartly sunny.10 mph70%30.06 "Hg15 mi
10:00 AM34 °FBroken clouds.8 mph81%30.05 "Hg15 mi
Weather by CustomWeather, © 2015

See weather overviewHow to use our weather pages